Location: Maiden
(35.5760°N, 81.2120°W)
Time: 02:43:29
(UTC-04:00)

Abrixas rocket - Pass Details

Date: 02 August 2020
Orbit: 338 x 346 km, 48.4° (Epoch: 10 August)

Event Time Altitude Azimuth Distance (km) Brightness Sun altitude
Rises 21:11:09 0° 306° (NW) 2,137 8.1 -8.9°
Reaches altitude 10° 21:13:10 10° 305° (NW) 1,292 6.4 -9.2°
Maximum altitude 21:16:03 81° 219° (SW) 349 1.8 -9.7°
Enters shadow 21:18:13 16° 131° (SE) 998 3.5 -10.1°
